Wind_Speed
19 23 25 27 26 25 23 20 16 12 11 9 5 3 2 2 4 9 13 19 19 18 24 23 17 18 19 20 19 15 13 16 18 21 25 15 17 16 12 11 7 6 5 8 6
12 16 22 26 29 29 27 24 20 17 15 13 9 7 2 2 4 9 7 7 13 20 28 27 22 19 19 12 11 12 11 14 16 16 20 13 17 14 6 11 9 3 4 6 6
14 14 14 20 26 31 31 30 27 22 18 17 12 11 7 4 5 5 12 11 13 22 33 31 18 18 17 13 9 13 11 9 16 17 13 11 17 13 7 9 9 5 5 6 7
18 18 17 16 18 27 31 34 32 30 25 21 18 14 13 8 8 7 8 13 15 30 30 30 23 17 13 9 7 11 5 7 15 14 13 15 13 10 7 7 8 7 5 7 8
20 20 20 20 18 19 24 32 35 35 34 28 23 18 18 14 7 7 5 11 14 24 27 26 23 19 13 10 9 9 4 7 16 11 12 12 11 10 10 9 7 8 6 6 7
21 21 21 21 22 21 21 22 33 36 37 32 28 24 21 19 15 8 7 12 18 25 31 29 24 23 17 15 10 8 2 6 12 13 14 11 11 11 11 12 9 6 4 6 8
23 23 22 22 22 23 24 23 22 33 37 36 33 30 26 23 18 12 10 16 24 27 35 34 29 29 23 17 19 15 2 11 13 12 11 10 9 5 7 12 10 5 5 7 9
21 23 23 23 22 24 25 25 26 23 32 37 34 35 33 24 24 20 16 17 24 25 35 43 36 31 25 23 15 12 13 8 12 12 8 7 8 3 5 8 11 7 3 5 7
26 24 23 21 22 25 26 27 27 25 22 31 35 38 38 32 33 28 23 25 26 27 32 35 40 31 30 25 16 13 12 14 11 5 7 6 11 6 7 10 6 7 4 1 4
30 28 25 23 23 24 27 28 27 26 23 24 35 39 41 39 38 34 31 30 31 33 36 33 38 37 33 28 20 14 18 17 10 4 4 6 5 7 3 6 9 2 3 4 2
29 30 31 30 27 29 31 29 28 29 26 28 25 40 43 44 42 40 37 35 36 36 35 35 34 31 29 28 26 19 17 17 5 4 4 7 6 4 11 6 3 2 4 3 4
31 32 34 34 32 32 33 33 30 32 25 31 28 28 47 48 46 45 43 40 38 35 34 35 31 29 32 32 32 26 21 16 13 5 6 5 9 5 7 10 3 4 3 2 4
32 33 34 35 35 36 37 36 36 33 31 21 36 24 38 49 48 48 47 46 40 37 36 29 26 37 34 29 36 29 23 20 8 11 15 14 15 5 7 11 6 12 8 9 7
34 35 34 36 35 36 36 35 36 35 30 25 32 29 33 43 47 52 50 49 46 41 39 33 34 41 40 31 33 33 27 20 21 20 17 20 20 10 6 12 5 8 8 6 6
32 34 36 35 37 38 35 35 37 35 33 22 26 27 31 37 34 48 47 51 49 44 44 37 34 40 41 33 31 34 27 26 24 20 19 23 26 15 16 15 9 6 5 10 13
36 34 38 37 36 40 37 35 36 34 27 20 19 25 27 31 35 43 49 52 48 50 48 42 38 43 45 35 38 34 35 34 28 26 30 26 25 22 17 8 14 12 11 12 10
36 36 38 38 40 39 38 36 38 35 19 20 17 23 27 30 29 39 47 53 56 59 57 48 47 48 48 45 46 44 41 39 38 36 34 30 31 20 6 9 11 10 12 8 10
39 39 38 41 45 41 39 39 40 27 17 19 19 20 23 30 26 26 36 45 51 54 55 52 52 51 52 49 49 47 47 45 38 32 31 34 38 13 11 12 9 9 14 8 4
39 41 40 43 43 42 40 44 38 24 20 21 26 29 22 24 24 23 25 32 41 49 56 55 52 52 55 50 50 52 56 45 44 39 37 35 36 30 18 17 18 9 14 9 9
39 42 44 43 45 44 45 44 37 24 24 26 35 39 35 29 28 29 30 24 26 35 44 51 52 51 51 54 54 57 55 49 50 45 45 45 44 44 35 22 19 14 14 12 12
40 44 45 44 45 47 47 42 33 27 31 33 37 47 44 39 34 33 33 28 24 20 32 44 53 49 51 56 54 58 56 57 49 45 41 35 33 31 35 24 18 16 19 15 11
43 43 44 46 47 47 46 39 36 34 40 39 37 49 46 40 38 35 35 31 23 21 31 39 46 47 51 52 52 59 53 52 48 40 36 33 33 31 26 21 17 21 16 12 12
45 44 47 48 49 47 44 45 42 41 43 41 38 46 54 50 46 43 41 36 32 29 28 31 42 48 48 52 53 56 49 41 31 33 35 31 29 28 31 28 21 19 20 21 23
45 47 48 48 49 48 46 45 43 42 44 43 41 41 57 54 52 45 44 39 36 28 22 31 31 45 52 48 51 52 44 36 31 34 36 33 30 27 27 32 31 27 23 21 17
47 47 49 50 49 47 48 45 42 44 48 44 43 43 54 60 52 50 38 44 25 28 34 38 34 28 45 48 52 45 43 35 35 30 31 27 29 29 30 31 29 23 22 19 14
49 47 48 50 50 47 48 46 43 45 47 45 46 43 46 62 60 46 44 49 27 30 34 38 36 24 34 45 53 47 42 40 36 33 27 26 28 23 24 27 28 31 27 23 24
49 49 46 48 51 49 48 50 44 46 44 47 48 45 47 50 65 59 45 39 32 39 39 39 38 34 34 45 52 55 40 42 41 39 36 38 28 28 31 35 30 29 29 28 26
Wind_Direction
263 259 257 255 254 255 256 254 255 258 267 266 250 287 343 269 197 181 188 200 193 198 183 174 174 131 99 104 103 107 99 68 67 54 35 62 59 23 16 48 31 67 72 111 116
285 272 262 258 255 252 252 250 250 255 257 264 248 239 236 253 235 214 231 212 198 183 179 174 143 130 111 118 123 128 96 86 71 41 26 42 36 13 25 55 39 44 85 98 118
280 280 278 268 259 254 251 248 248 244 251 255 252 235 225 228 232 204 198 198 193 178 174 167 154 142 121 119 133 126 109 59 50 21 24 26 18 17 356 38 47 28 76 90 114
284 279 276 274 272 260 253 250 245 241 244 252 249 232 230 220 221 254 240 188 195 181 184 175 169 149 123 119 109 121 48 21 39 24 46 42 34 44 25 42 60 54 46 85 98
284 285 278 273 271 273 263 252 248 245 242 244 245 238 228 225 209 241 244 199 188 189 182 173 162 141 141 166 151 106 60 13 57 38 57 29 56 55 45 42 57 59 50 76 89
278 275 280 281 274 269 269 271 250 246 247 240 235 234 229 225 216 221 203 193 188 187 183 185 180 160 166 193 170 125 57 352 85 53 45 59 50 45 49 38 46 56 67 92 99
282 278 275 272 278 277 268 267 267 250 244 242 230 228 226 225 216 217 215 204 195 187 186 192 183 172 185 198 190 151 151 97 118 78 56 55 41 22 42 54 53 49 111 106 116
280 279 277 280 277 273 273 267 264 263 249 242 233 224 222 219 213 208 202 213 217 201 193 198 196 184 184 202 194 187 139 140 124 102 92 71 57 80 28 34 51 34 108 121 121
289 279 272 273 278 281 276 270 267 265 265 246 237 224 223 211 214 207 197 205 215 210 206 207 202 193 197 215 208 205 153 154 136 130 104 96 40 37 43 23 10 33 8 206 142
284 285 275 271 277 275 276 276 274 267 263 258 236 230 221 215 220 212 203 202 209 212 215 214 211 212 204 221 242 238 156 159 169 195 88 35 12 39 44 343 350 316 325 325 269
279 281 278 278 280 281 281 273 274 269 266 259 250 233 225 215 214 213 212 203 206 212 219 220 220 221 218 216 242 221 181 145 174 111 77 16 320 31 15 351 345 284 295 269 309
282 280 279 277 282 285 284 283 275 269 262 263 251 239 231 220 211 214 213 216 212 214 219 222 220 219 218 212 222 229 196 164 201 204 241 281 291 336 344 350 297 281 263 249 294
281 280 277 272 277 283 284 285 283 271 259 249 260 237 241 228 214 211 211 218 220 212 219 226 216 217 220 221 213 223 205 190 194 242 259 249 254 349 307 322 288 340 310 285 295
284 281 277 273 271 278 280 282 283 281 276 264 255 257 252 230 222 214 208 215 221 215 214 217 211 215 217 213 217 222 202 194 227 231 262 276 275 265 288 291 256 305 343 306 320
280 283 279 271 268 272 278 278 280 283 281 272 266 254 245 233 216 220 214 211 218 218 214 213 209 215 220 212 214 208 201 213 222 245 251 260 261 248 250 263 296 296 312 334 316
275 277 278 272 265 269 273 276 275 278 287 272 257 253 238 225 215 214 215 210 213 218 218 212 208 209 219 209 208 199 206 215 218 229 244 250 253 255 251 270 287 301 289 317 295
278 275 271 272 265 263 266 268 271 274 288 267 244 242 240 215 205 215 213 212 211 213 215 209 205 208 210 209 203 205 204 214 219 221 241 245 246 250 268 333 308 277 273 302 302
275 276 268 266 265 261 260 261 266 282 262 253 227 203 210 203 190 207 217 217 213 218 221 215 208 205 210 214 203 205 204 216 224 232 243 249 248 245 273 292 255 244 266 292 316
273 272 265 262 261 260 254 258 264 268 239 227 213 203 179 176 173 192 206 214 218 223 221 219 212 209 210 210 203 206 207 215 224 227 239 248 251 249 256 246 258 245 257 271 270
268 263 263 259 258 255 251 254 255 249 235 224 214 212 209 208 198 209 209 190 208 219 226 223 219 213 212 209 204 209 210 214 224 232 237 241 245 243 244 229 250 239 248 260 274
267 255 256 256 254 253 253 252 247 237 229 227 219 214 213 217 214 216 203 188 175 191 221 227 224 213 212 216 210 212 214 219 226 234 245 254 229 224 224 231 231 243 254 261 283
262 250 252 253 252 251 250 243 236 227 225 227 223 216 214 217 225 224 209 197 188 182 210 222 226 211 218 219 215 215 219 220 226 232 241 240 232 224 238 238 233 240 255 264 274
257 249 247 247 248 246 241 239 231 228 224 228 222 217 216 212 213 218 216 200 191 191 193 217 222 217 211 212 216 215 218 215 224 236 239 236 240 233 242 251 240 247 255 270 282
253 249 245 243 244 244 239 236 231 227 226 228 225 224 220 215 213 215 220 206 209 202 189 208 231 226 215 211 211 211 214 215 222 231 239 243 250 253 250 249 255 260 271 273 278
248 243 243 241 239 239 240 232 230 226 225 222 225 229 223 218 222 216 207 210 208 219 206 211 218 218 215 206 208 215 218 217 220 233 239 247 254 254 255 249 260 268 261 266 272
242 237 236 238 236 233 235 232 224 226 226 219 222 228 227 224 223 226 210 198 197 206 221 219 221 196 211 202 207 211 216 220 219 226 244 244 248 231 248 254 258 258 268 280 293
240 233 230 230 235 232 228 230 221 225 224 220 221 223 225 225 227 223 225 183 199 202 218 227 227 213 210 198 204 213 218 223 225 219 239 244 234 240 249 253 255 255 269 287 290
Height
5886 5887 5887 5888 5888 5890 5891 5892 5893 5894 5893 5893 5894 5893 5893 5892 5892 5892 5893 5893 5893 5895 5897 5899 5902 5903 5901 5901 5902 5905 5904 5903 5903 5903 5905 5903 5901 5903 5905 5904 5904 5903 5902 5902 5902
5883 5882 5882 5883 5884 5885 5887 5889 5890 5891 5892 5892 5893 5893 5892 5891 5891 5891 5891 5892 5893 5894 5897 5899 5902 5903 5902 5904 5905 5906 5906 5904 5904 5905 5906 5908 5906 5906 5907 5906 5906 5906 5905 5904 5904
5880 5879 5879 5878 5879 5880 5881 5883 5886 5888 5889 5890 5890 5891 5891 5891 5890 5890 5889 5891 5893 5895 5896 5898 5901 5903 5903 5903 5904 5906 5905 5907 5904 5906 5907 5909 5908 5908 5908 5907 5908 5908 5907 5907 5906
5877 5876 5875 5875 5874 5874 5875 5877 5880 5882 5885 5887 5888 5889 5890 5890 5890 5888 5888 5890 5891 5894 5896 5899 5900 5900 5900 5902 5904 5907 5907 5908 5905 5906 5907 5908 5910 5911 5910 5910 5909 5909 5909 5907 5907
5873 5872 5872 5871 5870 5870 5870 5871 5873 5875 5878 5882 5884 5886 5887 5888 5888 5887 5889 5889 5891 5892 5897 5898 5898 5899 5900 5902 5904 5904 5905 5906 5905 5907 5908 5910 5912 5912 5913 5912 5910 5909 5910 5909 5909
5867 5867 5867 5867 5867 5866 5865 5865 5866 5868 5870 5875 5878 5881 5883 5885 5886 5886 5887 5888 5890 5892 5895 5897 5898 5899 5899 5900 5904 5903 5904 5905 5906 5906 5906 5909 5910 5912 5913 5913 5911 5911 5912 5911 5911
5863 5862 5861 5861 5861 5861 5861 5860 5860 5862 5863 5867 5871 5875 5878 5880 5883 5885 5885 5885 5886 5890 5893 5895 5895 5897 5897 5899 5901 5900 5903 5905 5906 5906 5908 5910 5912 5913 5913 5914 5914 5914 5914 5914 5914
5858 5857 5856 5856 5855 5855 5855 5855 5854 5856 5858 5860 5865 5869 5871 5878 5879 5880 5883 5883 5883 5885 5886 5887 5892 5894 5896 5896 5900 5900 5901 5907 5908 5908 5912 5915 5915 5914 5914 5914 5914 5916 5916 5916 5916
5853 5852 5851 5850 5850 5848 5848 5849 5849 5851 5853 5854 5858 5861 5864 5870 5871 5874 5878 5879 5879 5882 5884 5885 5890 5892 5893 5892 5897 5899 5902 5906 5907 5910 5912 5914 5914 5914 5914 5913 5914 5914 5915 5916 5915
5847 5846 5846 5846 5846 5843 5841 5842 5844 5844 5847 5846 5849 5854 5857 5862 5864 5869 5870 5873 5876 5877 5879 5883 5885 5888 5891 5890 5893 5899 5898 5905 5910 5912 5912 5912 5914 5914 5913 5914 5913 5913 5914 5914 5917
5841 5840 5838 5838 5839 5838 5835 5836 5838 5839 5839 5839 5842 5844 5846 5851 5857 5863 5865 5866 5869 5871 5875 5878 5882 5884 5891 5894 5891 5896 5899 5906 5909 5910 5911 5912 5914 5915 5913 5913 5912 5912 5912 5912 5913
5835 5834 5833 5831 5831 5830 5828 5826 5828 5829 5835 5830 5833 5836 5836 5842 5848 5854 5860 5860 5862 5867 5871 5875 5878 5887 5889 5891 5892 5893 5895 5900 5903 5908 5909 5911 5912 5913 5912 5912 5912 5913 5913 5913 5914
5828 5826 5825 5824 5824 5823 5821 5819 5818 5819 5824 5827 5821 5831 5828 5832 5841 5844 5852 5855 5857 5861 5865 5872 5881 5881 5885 5887 5889 5891 5895 5900 5902 5903 5905 5906 5907 5911 5911 5912 5912 5913 5913 5912 5912
5821 5819 5818 5816 5818 5816 5815 5813 5810 5809 5813 5819 5816 5820 5819 5825 5832 5834 5841 5850 5851 5854 5859 5866 5875 5875 5878 5883 5887 5890 5896 5899 5899 5897 5900 5903 5903 5907 5909 5910 5912 5912 5912 5910 5909
5812 5811 5809 5809 5808 5808 5809 5807 5804 5804 5804 5810 5808 5808 5809 5815 5827 5828 5835 5839 5846 5850 5851 5859 5867 5871 5873 5881 5884 5891 5894 5896 5896 5894 5894 5896 5898 5904 5905 5907 5909 5910 5909 5908 5906
5803 5801 5800 5801 5799 5799 5800 5800 5798 5798 5798 5801 5800 5800 5802 5805 5814 5816 5823 5829 5841 5844 5846 5853 5860 5865 5870 5879 5881 5890 5889 5889 5890 5889 5885 5891 5895 5896 5900 5903 5905 5907 5907 5906 5904
5791 5790 5790 5789 5789 5789 5791 5791 5792 5789 5796 5794 5795 5796 5796 5797 5802 5807 5811 5817 5823 5828 5833 5844 5848 5856 5863 5870 5875 5878 5882 5882 5883 5880 5879 5888 5888 5891 5897 5899 5901 5902 5903 5903 5902
5779 5779 5779 5777 5776 5779 5780 5782 5781 5787 5788 5788 5790 5791 5791 5791 5793 5799 5804 5809 5814 5822 5832 5836 5841 5846 5853 5858 5866 5872 5876 5876 5875 5877 5880 5881 5878 5888 5893 5894 5897 5898 5899 5899 5898
5766 5766 5766 5765 5765 5767 5769 5768 5774 5779 5780 5781 5784 5786 5786 5783 5786 5787 5793 5799 5807 5816 5821 5827 5834 5842 5844 5853 5860 5864 5864 5873 5872 5871 5874 5875 5877 5882 5887 5890 5892 5894 5895 5896 5895
5752 5751 5752 5751 5753 5754 5755 5758 5764 5769 5770 5771 5774 5778 5779 5779 5779 5780 5781 5790 5797 5804 5813 5820 5828 5835 5841 5845 5850 5853 5863 5864 5863 5864 5865 5869 5871 5876 5882 5885 5886 5887 5890 5891 5892
5736 5735 5736 5737 5738 5740 5742 5748 5756 5758 5758 5760 5763 5767 5773 5773 5773 5773 5777 5783 5786 5793 5801 5809 5816 5829 5831 5832 5842 5847 5850 5855 5859 5859 5859 5862 5865 5871 5875 5879 5881 5884 5886 5887 5889
5718 5720 5721 5722 5725 5726 5732 5737 5743 5744 5744 5746 5751 5757 5762 5763 5766 5767 5773 5776 5783 5785 5788 5796 5805 5814 5821 5829 5836 5840 5844 5849 5850 5852 5854 5856 5861 5868 5871 5872 5875 5878 5881 5882 5884
5699 5702 5705 5706 5708 5713 5717 5721 5725 5731 5732 5737 5742 5745 5747 5751 5755 5760 5764 5771 5773 5774 5778 5788 5792 5803 5810 5819 5824 5827 5835 5841 5844 5849 5848 5852 5857 5863 5865 5867 5870 5872 5874 5877 5877
5682 5684 5689 5691 5693 5698 5703 5707 5713 5720 5723 5727 5733 5733 5737 5745 5752 5757 5760 5766 5768 5772 5776 5783 5786 5792 5800 5811 5818 5823 5830 5836 5839 5840 5844 5846 5851 5855 5858 5861 5863 5868 5869 5870 5872
5663 5668 5671 5675 5679 5682 5689 5695 5702 5706 5710 5717 5722 5725 5731 5738 5743 5749 5754 5760 5763 5767 5769 5773 5778 5785 5797 5805 5813 5820 5825 5829 5831 5835 5838 5843 5845 5849 5852 5855 5857 5860 5862 5863 5867
5646 5650 5655 5659 5663 5669 5675 5681 5689 5694 5700 5708 5712 5717 5722 5729 5736 5741 5744 5751 5758 5765 5766 5770 5774 5780 5786 5797 5806 5812 5818 5821 5824 5829 5834 5837 5839 5844 5847 5848 5850 5852 5854 5855 5857
5627 5633 5637 5642 5646 5655 5661 5667 5676 5681 5690 5695 5701 5707 5711 5719 5726 5735 5738 5741 5750 5755 5759 5765 5770 5775 5777 5788 5798 5801 5808 5812 5817 5821 5828 5828 5834 5837 5839 5841 5844 5846 5848 5848 5849